Time,TemperatureF,DewpointF,PressureIn,WindDirection,WindDirectionDegrees,WindSpeedMPH,WindSpeedGustMPH,Humidity,HourlyPrecipIn,Conditions,Clouds,dailyrainin,SoftwareType,DateUTC
2013-08-21 00:10:00,55.9,49.8,30.02,NNW,337,2.2,-999.0,80,-99.99,,,0.00,Acu-Link.com,2013-08-21 06:10:00,
2013-08-21 00:25:00,56.5,51.1,30.03,SW,225,0.0,-999.0,82,-99.99,,,0.00,Acu-Link.com,2013-08-21 06:25:00,
2013-08-21 00:41:00,55.8,50.7,30.04,WSW,247,0.0,-999.0,83,-99.99,,,0.00,Acu-Link.com,2013-08-21 06:41:00,
2013-08-21 00:56:00,54.0,51.7,30.04,WNW,292,0.0,-999.0,92,-99.99,,,0.00,Acu-Link.com,2013-08-21 06:56:00,
2013-08-21 01:11:00,53.6,50.4,30.03,North,0,0.0,-999.0,89,-99.99,,,0.00,Acu-Link.com,2013-08-21 07:11:00,
2013-08-21 01:26:00,53.2,50.9,30.03,SSW,202,0.0,-999.0,92,-99.99,,,0.00,Acu-Link.com,2013-08-21 07:26:00,
2013-08-21 01:41:00,52.2,50.5,30.03,East,90,0.0,-999.0,94,-99.99,,,0.00,Acu-Link.com,2013-08-21 07:41:00,
2013-08-21 01:57:00,50.7,49.9,30.04,WSW,247,0.0,-999.0,97,-99.99,,,0.00,Acu-Link.com,2013-08-21 07:57:00,
2013-08-21 02:12:00,50.2,49.7,30.04,WSW,247,0.0,-999.0,98,-99.99,,,0.00,Acu-Link.com,2013-08-21 08:12:00,
2013-08-21 02:27:00,49.5,49.0,30.03,WNW,292,0.0,-999.0,98,-99.99,,,0.00,Acu-Link.com,2013-08-21 08:27:00,
2013-08-21 02:43:00,49.1,48.6,30.04,West,270,0.0,-999.0,98,-99.99,,,0.00,Acu-Link.com,2013-08-21 08:43:00,
2013-08-21 02:58:00,47.8,47.3,30.04,WSW,247,0.0,-999.0,98,-99.99,,,0.00,Acu-Link.com,2013-08-21 08:58:00,
2013-08-21 03:13:00,47.1,46.6,30.05,West,270,0.0,-999.0,98,-99.99,,,0.00,Acu-Link.com,2013-08-21 09:13:00,
2013-08-21 03:28:00,46.2,45.7,30.05,NNW,337,0.0,-999.0,98,-99.99,,,0.00,Acu-Link.com,2013-08-21 09:28:00,
2013-08-21 03:44:00,45.7,45.2,30.05,West,270,0.0,-999.0,98,-99.99,,,0.00,Acu-Link.com,2013-08-21 09:44:00,
2013-08-21 04:00:00,45.5,45.0,30.06,NNE,22,0.0,-999.0,98,-99.99,,,0.00,Acu-Link.com,2013-08-21 10:00:00,
2013-08-21 04:15:00,44.8,44.3,30.06,West,270,0.0,-999.0,98,-99.99,,,0.00,Acu-Link.com,2013-08-21 10:15:00,
2013-08-21 04:31:00,43.9,43.4,30.05,SSE,157,0.0,-999.0,98,-99.99,,,0.00,Acu-Link.com,2013-08-21 10:31:00,
2013-08-21 04:49:00,43.7,43.2,30.06,West,270,0.0,-999.0,98,-99.99,,,0.00,Acu-Link.com,2013-08-21 10:49:00,
2013-08-21 05:05:00,42.8,42.3,30.06,ESE,112,0.0,-999.0,98,-99.99,,,0.00,Acu-Link.com,2013-08-21 11:05:00,
2013-08-21 05:20:00,42.4,41.9,30.07,NNW,337,0.0,-999.0,98,-99.99,,,0.00,Acu-Link.com,2013-08-21 11:20:00,
2013-08-21 05:36:00,42.3,41.8,30.07,SSW,202,0.0,-999.0,98,-99.99,,,0.00,Acu-Link.com,2013-08-21 11:36:00,
2013-08-21 05:56:00,42.3,41.8,30.07,NNE,22,0.0,-999.0,98,-99.99,,,0.00,Acu-Link.com,2013-08-21 11:56:00,
2013-08-21 06:11:00,41.7,41.2,30.08,NW,315,0.0,-999.0,98,-99.99,,,0.00,Acu-Link.com,2013-08-21 12:11:00,
2013-08-21 06:27:00,41.5,41.0,30.08,West,270,0.0,-999.0,98,-99.99,,,0.00,Acu-Link.com,2013-08-21 12:27:00,
2013-08-21 06:42:00,41.4,40.9,30.09,NE,45,0.0,-999.0,98,-99.99,,,0.00,Acu-Link.com,2013-08-21 12:42:00,
2013-08-21 06:59:00,42.8,42.3,30.09,NE,45,0.0,-999.0,98,-99.99,,,0.00,Acu-Link.com,2013-08-21 12:59:00,
2013-08-21 07:14:00,48.9,48.4,30.10,NNE,22,0.0,-999.0,98,-99.99,,,0.00,Acu-Link.com,2013-08-21 13:14:00,
2013-08-21 07:29:00,53.2,50.3,30.10,ENE,67,2.2,-999.0,90,-99.99,,,0.00,Acu-Link.com,2013-08-21 13:29:00,
2013-08-21 07:44:00,56.3,50.9,30.10,NE,45,1.1,-999.0,82,-99.99,,,0.00,Acu-Link.com,2013-08-21 13:44:00,
2013-08-21 08:00:00,59.5,51.6,30.11,East,90,1.1,-999.0,75,-99.99,,,0.00,Acu-Link.com,2013-08-21 14:00:00,
2013-08-21 08:15:00,62.6,52.7,30.11,South,180,0.0,-999.0,70,-99.99,,,0.00,Acu-Link.com,2013-08-21 14:15:00,
2013-08-21 08:30:00,63.9,53.1,30.11,SW,225,1.7,-999.0,68,-99.99,,,0.00,Acu-Link.com,2013-08-21 14:30:00,
2013-08-21 08:46:00,70.7,54.2,30.11,East,90,0.0,-999.0,56,-99.99,,,0.00,Acu-Link.com,2013-08-21 14:46:00,
2013-08-21 09:01:00,61.9,52.8,30.10,ESE,112,0.0,-999.0,72,-99.99,,,0.00,Acu-Link.com,2013-08-21 15:01:00,
2013-08-21 09:16:00,63.7,52.9,30.10,NNE,22,2.2,-999.0,68,-99.99,,,0.00,Acu-Link.com,2013-08-21 15:16:00,
2013-08-21 09:32:00,64.0,53.2,30.10,NNE,22,0.0,-999.0,68,-99.99,,,0.00,Acu-Link.com,2013-08-21 15:32:00,
2013-08-21 09:47:00,64.4,54.0,30.10,SSW,202,1.1,-999.0,69,-99.99,,,0.00,Acu-Link.com,2013-08-21 15:47:00,
2013-08-21 10:02:00,66.2,56.1,30.10,ESE,112,2.7,-999.0,70,-99.99,,,0.00,Acu-Link.com,2013-08-21 16:02:00,
2013-08-21 10:18:00,67.1,55.8,30.09,WSW,247,3.2,-999.0,67,-99.99,,,0.00,Acu-Link.com,2013-08-21 16:18:00,
2013-08-21 10:34:00,68.9,56.6,30.09,SW,225,2.7,-999.0,65,-99.99,,,0.00,Acu-Link.com,2013-08-21 16:34:00,
2013-08-21 10:49:00,70.3,57.1,30.10,South,180,4.2,-999.0,63,-99.99,,,0.00,Acu-Link.com,2013-08-21 16:49:00,
2013-08-21 11:05:00,71.6,57.4,30.08,SSW,202,3.2,-999.0,61,-99.99,,,0.00,Acu-Link.com,2013-08-21 17:05:00,
2013-08-21 11:21:00,71.4,55.4,30.07,East,90,1.1,-999.0,57,-99.99,,,0.00,Acu-Link.com,2013-08-21 17:21:00,
2013-08-21 11:36:00,72.9,57.2,30.07,NNE,22,2.2,-999.0,58,-99.99,,,0.00,Acu-Link.com,2013-08-21 17:36:00,
2013-08-21 11:52:00,74.8,54.9,30.06,NNW,337,1.7,-999.0,50,-99.99,,,0.00,Acu-Link.com,2013-08-21 17:52:00,
2013-08-21 12:07:00,76.1,59.7,30.06,SSW,202,1.1,-999.0,57,-99.99,,,0.00,Acu-Link.com,2013-08-21 18:07:00,
2013-08-21 12:23:00,77.2,55.4,30.04,SSE,157,0.0,-999.0,47,-99.99,,,0.00,Acu-Link.com,2013-08-21 18:23:00,
2013-08-21 12:39:00,79.3,59.0,30.03,SW,225,4.2,-999.0,50,-99.99,,,0.00,Acu-Link.com,2013-08-21 18:39:00,
2013-08-21 12:55:00,79.5,58.1,30.02,South,180,2.2,-999.0,48,-99.99,,,0.00,Acu-Link.com,2013-08-21 18:55:00,
2013-08-21 13:10:00,79.7,59.4,30.02,SSE,157,5.3,-999.0,50,-99.99,,,0.00,Acu-Link.com,2013-08-21 19:10:00,
2013-08-21 13:25:00,80.6,60.2,30.00,SSE,157,2.7,-999.0,50,-99.99,,,0.00,Acu-Link.com,2013-08-21 19:25:00,
2013-08-21 13:41:00,80.8,58.1,30.00,South,180,1.1,-999.0,46,-99.99,,,0.00,Acu-Link.com,2013-08-21 19:41:00,
2013-08-21 13:57:00,82.6,59.7,29.98,WSW,247,5.3,-999.0,46,-99.99,,,0.00,Acu-Link.com,2013-08-21 19:57:00,
2013-08-21 14:12:00,82.4,57.0,29.98,South,180,4.7,-999.0,42,-99.99,,,0.00,Acu-Link.com,2013-08-21 20:12:00,
2013-08-21 14:27:00,83.3,56.4,29.97,South,180,6.8,-999.0,40,-99.99,,,0.00,Acu-Link.com,2013-08-21 20:27:00,
2013-08-21 14:42:00,84.2,57.9,29.96,SSW,202,4.7,-999.0,41,-99.99,,,0.00,Acu-Link.com,2013-08-21 20:42:00,
2013-08-21 14:58:00,79.5,55.0,29.96,SSW,202,2.7,-999.0,43,-99.99,,,0.00,Acu-Link.com,2013-08-21 20:58:00,
2013-08-21 15:13:00,77.9,54.8,29.96,North,0,4.2,-999.0,45,-99.99,,,0.00,Acu-Link.com,2013-08-21 21:13:00,
2013-08-21 15:28:00,75.9,54.8,29.97,SSE,157,9.4,-999.0,48,-99.99,,,0.00,Acu-Link.com,2013-08-21 21:28:00,
2013-08-21 15:44:00,71.4,53.4,29.99,SSW,202,9.9,-999.0,53,-99.99,,,0.00,Acu-Link.com,2013-08-21 21:44:00,
2013-08-21 15:59:00,69.4,53.0,30.00,SW,225,3.2,-999.0,56,-99.99,,,0.00,Acu-Link.com,2013-08-21 21:59:00,
2013-08-21 16:14:00,67.3,52.0,30.02,SSW,202,8.9,-999.0,58,-99.99,,,0.00,Acu-Link.com,2013-08-21 22:14:00,
2013-08-21 16:29:00,68.0,53.1,30.03,East,90,4.7,-999.0,59,-99.99,,,0.00,Acu-Link.com,2013-08-21 22:29:00,
2013-08-21 16:44:00,67.5,53.1,30.04,ESE,112,7.3,-999.0,60,-99.99,,,0.00,Acu-Link.com,2013-08-21 22:44:00,
2013-08-21 16:59:00,65.7,53.2,30.05,SSE,157,6.3,-999.0,64,-99.99,,,0.00,Acu-Link.com,2013-08-21 22:59:00,
2013-08-21 17:14:00,64.2,56.1,30.05,ENE,67,8.9,-999.0,75,-99.99,,,0.00,Acu-Link.com,2013-08-21 23:14:00,
2013-08-21 17:29:00,63.7,55.6,30.07,NE,45,11.4,-999.0,75,-99.99,,,0.00,Acu-Link.com,2013-08-21 23:29:00,
2013-08-21 17:45:00,62.2,56.6,30.07,NE,45,8.9,-999.0,82,-99.99,,,0.00,Acu-Link.com,2013-08-21 23:45:00,
2013-08-21 18:00:00,64.0,54.0,30.08,NE,45,8.3,-999.0,70,-99.99,,,0.00,Acu-Link.com,2013-08-22 00:00:00,
2013-08-21 18:15:00,64.6,54.6,30.07,NW,315,2.7,-999.0,70,-99.99,,,0.00,Acu-Link.com,2013-08-22 00:15:00,
2013-08-21 18:30:00,64.2,53.8,30.07,NW,315,4.7,-999.0,69,-99.99,,,0.00,Acu-Link.com,2013-08-22 00:30:00,
2013-08-21 18:45:00,63.1,55.0,30.05,NNW,337,5.3,-999.0,75,-99.99,,,0.00,Acu-Link.com,2013-08-22 00:45:00,
2013-08-21 19:01:00,62.8,54.4,30.05,NW,315,7.3,-999.0,74,-99.99,,,0.00,Acu-Link.com,2013-08-22 01:01:00,
2013-08-21 19:16:00,62.6,53.8,30.07,East,90,2.2,-999.0,73,-99.99,,,0.00,Acu-Link.com,2013-08-22 01:16:00,
2013-08-21 19:31:00,62.1,54.1,30.07,NNW,337,3.2,-999.0,75,-99.99,,,0.00,Acu-Link.com,2013-08-22 01:31:00,
2013-08-21 19:46:00,61.2,53.6,30.07,South,180,1.7,-999.0,76,-99.99,,,0.00,Acu-Link.com,2013-08-22 01:46:00,
2013-08-21 20:01:00,60.4,53.2,30.07,North,0,1.7,-999.0,77,-99.99,,,0.00,Acu-Link.com,2013-08-22 02:01:00,
2013-08-21 20:17:00,60.1,52.5,30.08,ENE,67,3.7,-999.0,76,-99.99,,,0.00,Acu-Link.com,2013-08-22 02:17:00,
2013-08-21 20:32:00,60.1,52.1,30.06,NNE,22,2.7,-999.0,75,-99.99,,,0.00,Acu-Link.com,2013-08-22 02:32:00,
2013-08-21 20:47:00,60.3,52.0,30.07,ENE,67,3.7,-999.0,74,-99.99,,,0.00,Acu-Link.com,2013-08-22 02:47:00,
2013-08-21 21:02:00,60.4,53.2,30.08,ENE,67,6.8,-999.0,77,-99.99,,,0.00,Acu-Link.com,2013-08-22 03:02:00,
2013-08-21 21:17:00,60.1,52.9,30.09,ENE,67,3.7,-999.0,77,-99.99,,,0.00,Acu-Link.com,2013-08-22 03:17:00,
2013-08-21 21:33:00,58.8,53.6,30.09,North,0,1.1,-999.0,83,-99.99,,,0.00,Acu-Link.com,2013-08-22 03:33:00,
2013-08-21 21:48:00,58.3,54.1,30.10,NE,45,1.7,-999.0,86,-99.99,,,0.00,Acu-Link.com,2013-08-22 03:48:00,
2013-08-21 22:03:00,58.1,54.2,30.09,NNE,22,3.2,-999.0,87,-99.99,,,0.00,Acu-Link.com,2013-08-22 04:03:00,
2013-08-21 22:18:00,58.8,54.0,30.10,NNE,22,2.7,-999.0,84,-99.99,,,0.00,Acu-Link.com,2013-08-22 04:18:00,
2013-08-21 22:34:00,58.8,54.3,30.10,NE,45,3.2,-999.0,85,-99.99,,,0.00,Acu-Link.com,2013-08-22 04:34:00,
2013-08-21 22:49:00,58.5,53.7,30.10,NNE,22,2.7,-999.0,84,-99.99,,,0.00,Acu-Link.com,2013-08-22 04:49:00,
2013-08-21 23:04:00,57.7,53.9,30.10,NNE,22,0.0,-999.0,87,-99.99,,,0.00,Acu-Link.com,2013-08-22 05:04:00,
2013-08-21 23:19:00,57.4,53.9,30.10,NNW,337,2.2,-999.0,88,-99.99,,,0.00,Acu-Link.com,2013-08-22 05:19:00,
2013-08-21 23:35:00,57.2,53.7,30.11,NNE,22,3.2,-999.0,88,-99.99,,,0.00,Acu-Link.com,2013-08-22 05:35:00,
2013-08-21 23:50:00,56.8,53.3,30.09,NE,45,2.7,-999.0,88,-99.99,,,0.00,Acu-Link.com,2013-08-22 05:50:00,